Regional Weather Roundup
Issued by NWS

Home | Current Version | Previous Version | Text Only | Print | Product List | Glossary Off
Versions: 1 2 3 4 5 6 7 8 9 10 11 12 13 14 15 16 17 18 19 20 21 22 23 24 25 26 27 28 29 30 31 32 33 34 35 36 37 38 39 40 41 42 43 44 45 46 47 48 49 50

000
ASUS43 KLSX 252359
RWRMO

WEATHER SUMMARY FOR MISSOURI
NATIONAL WEATHER SERVICE SPRINGFIELD MO
700 PM CDT TUE JUL 25 2017

NOTE: "FAIR" INDICATES FEW OR NO CLOUDS BELOW 12,000 FEET WITH NO
       SIGNIFICANT WEATHER AND/OR OBSTRUCTIONS TO VISIBILITY.
       CURRENT SKY AND/OR WEATHER CONDITIONS ARE NOT AVAILABLE FOR
       CHILLICOTHE AND FARMINGTON.

MOZ001>031-035>038-043-044-053-054-260100-
...NORTHERN AND WESTERN MISSOURI...

CITY           SKY/WX    TMP DP  RH WIND       PRES   REMARKS
KANSAS CTY INT MOSUNNY   92  73  53 S12       30.00F HX 100
6HR MIN TEMP:  91; 6HR MAX TEMP:  95;

KANSAS C DTWN  SUNNY     92  74  55 S6        29.98F HX 101
6HR MIN TEMP:  91; 6HR MAX TEMP:  95;

LEE`S SUMMIT   SUNNY     91  74  57 S9        30.01F HX 100
6HR MIN TEMP:  89; 6HR MAX TEMP:  93;

ST JOSEPH      SUNNY     91  78  65 S12       29.97F HX 106
6HR MIN TEMP:  89; 6HR MAX TEMP:  93;

CHILLICOTHE      N/A     88  76  67 SE8       30.02F HX  99
6HR MIN TEMP:  85; 6HR MAX TEMP:  90;

KIRKSVILLE     SUNNY     87  69  54 SE9       30.05F HX  91
6HR MIN TEMP:  86; 6HR MAX TEMP:  90;


$$
MOZ066>068-077>081-088>096-101>105-260100-
...SOUTHWEST MISSOURI...

CITY           SKY/WX    TMP DP  RH WIND       PRES   REMARKS
SPRINGFIELD    CLOUDY    93  71  48 W6        30.04F HX 100
6HR MIN TEMP:  91; 6HR MAX TEMP:  97;

JOPLIN         SUNNY     95  71  45 S12       30.03S HX 102
6HR MIN TEMP:  93; 6HR MAX TEMP:  98;

BRANSON        MOSUNNY   90  68  48 CALM      30.07S HX  93

$$
MOZ032>034-039>042-045>050-055>058-069>072-260100-
...CENTRAL MISSOURI...

CITY           SKY/WX    TMP DP  RH WIND       PRES   REMARKS
COLUMBIA       SUNNY     87  69  54 NE7       30.05F HX  91
6HR MIN TEMP:  87; 6HR MAX TEMP:  92;

JEFFERSON CITY SUNNY     90  67  46 E7        30.02F HX  93
6HR MIN TEMP:  87; 6HR MAX TEMP:  92;

ROLLA          SUNNY     89  69  51 E5        30.07S HX  93
6HR MIN TEMP:  89; 6HR MAX TEMP:  94;

SEDALIA        SUNNY     89  77  67 E6        30.05S HX 101
6HR MIN TEMP:  89; 6HR MAX TEMP:  93;

WARRENSBURG    SUNNY     90  73  58 E8        30.02S HX  98
OSAGE BEACH    SUNNY     92  70  48 E8        30.04S HX  97

$$
MOZ051-052-059>065-260100-
...EAST CENTRAL MISSOURI...

CITY           SKY/WX    TMP DP  RH WIND       PRES   REMARKS
ST LOUIS INTL  MOSUNNY   90  70  51 E13       30.06S HX  95
6HR MIN TEMP:  89; 6HR MAX TEMP:  93;

SPIRIT OF STL  SUNNY     90  72  55 NE10      30.02F HX  97
6HR MIN TEMP:  88; 6HR MAX TEMP:  94;

ST CHARLES     SUNNY     88  72  58 E10       30.04F HX  94
6HR MIN TEMP:  87; 6HR MAX TEMP:  91;


$$
MOZ072>076-082>087-097>100-106>115-260100-
...SOUTH CENTRAL AND SOUTHEAST MISSOURI...

CITY           SKY/WX    TMP DP  RH WIND       PRES   REMARKS
CAPE GIRARDEAU SUNNY     84  75  74 SE7       30.03F HX  92
6HR MIN TEMP:  80; 6HR MAX TEMP:  88; 6HR PCP:  0.07;

FARMINGTON     CLOUDY    87  75  67 E6        30.07R HX  96
6HR MIN TEMP:  87; 6HR MAX TEMP:  95;

WEST PLAINS    MOSUNNY   88  68  51 SW5       30.07R HX  91
6HR MIN TEMP:  84; 6HR MAX TEMP:  96;


$$




USA.gov is the U.S. government's official web portal to all federal, state and local government web resources and services.